Weather History for Kelso-Longview, WA

Change the Weather History Date:

Monday, September 16, 2013

  Actual Average Record
Temperature  
Mean Temperature 62 °F -  
Max Temperature 66 °F 69 °F 87 °F (2008)
Min Temperature 57 °F 48 °F 42 °F (2012)
Degree Days  
Heating Degree Days 4    
Growing Degree Days 12 (Base 50)    
Moisture  
Dew Point 56 °F    
Average Humidity 82    
Maximum Humidity 94    
Minimum Humidity 73    
Precipitation  
Precipitation 0.12 in - - ()
Sea Level Pressure  
Sea Level Pressure 29.96 in    
Wind  
Wind Speed 3 mph (SSE)    
Max Wind Speed 12 mph    
Max Gust Speed 16 mph    
Visibility 10 miles    
Events      
Averages and records for this station are not official NWS values.
T = Trace of Precipitation, MM = Missing Value Source: NWS Daily Summary

Daily Weather History Graph

Daily Weather History Graph

Search for Another Location

Airport:

Trip Planner

Search our weather history database for the weather conditions in past years. The results will help you decide how hot, cold, wet, or windy it might be!

Date:

Astronomy

Sep. 16, 2013 Rise Set
Actual Time 6:51 AM PDT 7:20 PM PDT
Civil Twilight 6:21 AM PDT 7:50 PM PDT
Nautical Twilight 5:45 AM PDT 8:25 PM PDT
Astronomical Twilight 5:08 AM PDT 9:02 PM PDT
Moon 5:38 PM PDT (9/16) 3:35 AM PDT (9/16)
Length of Visible Light 13h 28m
Length of Day
12h 28m
Waxing Gibbous, 91% of the Moon is Illuminated
Sep 16
Waxing Gibbous
Sep 19
Full
Sep 26
Last Quarter
Oct 4
New
Oct 11
First Quarter

Hourly Weather History & Observations

Time (PDT) Temp. Dew Point Humidity Pressure Visibility Wind Dir Wind Speed Gust Speed Precip Events Conditions
12:15 AM 60.8 °F 57.2 °F 88% 29.90 in 10.0 mi Calm Calm - N/A   Overcast
12:35 AM 60.8 °F 57.2 °F 88% 29.90 in 10.0 mi Calm Calm - N/A   Overcast
12:55 AM 60.8 °F 57.2 °F 88% 29.91 in 10.0 mi Calm Calm - N/A   Overcast
1:15 AM 60.8 °F 57.2 °F 88% 29.91 in 10.0 mi Calm Calm - N/A   Overcast
1:35 AM 60.8 °F 57.2 °F 88% 29.92 in 10.0 mi Calm Calm - N/A   Overcast
1:55 AM 60.8 °F 57.2 °F 88% 29.92 in 10.0 mi SE 3.5 mph - N/A   Overcast
2:15 AM 60.8 °F 57.2 °F 88% 29.92 in 10.0 mi Calm Calm - N/A   Overcast
2:35 AM 60.8 °F 57.2 °F 88% 29.92 in 10.0 mi Calm Calm - N/A   Overcast
2:55 AM 60.8 °F 57.2 °F 88% 29.93 in 10.0 mi Calm Calm - N/A   Overcast
3:15 AM 60.8 °F 57.2 °F 88% 29.93 in 10.0 mi SSE 3.5 mph - N/A   Overcast
3:35 AM 60.8 °F 57.2 °F 88% 29.93 in 10.0 mi SE 3.5 mph - N/A   Overcast
3:55 AM 60.8 °F 55.4 °F 82% 29.94 in 10.0 mi SSE 4.6 mph - N/A   Overcast
4:15 AM 60.8 °F 55.4 °F 82% 29.94 in 10.0 mi South 3.5 mph - N/A   Overcast
4:35 AM 60.8 °F 55.4 °F 82% 29.94 in 10.0 mi SSE 5.8 mph - N/A   Overcast
4:55 AM 60.8 °F 55.4 °F 82% 29.94 in 10.0 mi SSE 3.5 mph - N/A   Overcast
5:15 AM 60.8 °F 55.4 °F 82% 29.95 in 10.0 mi SSE 4.6 mph - N/A   Overcast
5:35 AM 60.8 °F 55.4 °F 82% 29.95 in 10.0 mi SSE 6.9 mph - N/A   Overcast
5:55 AM 60.8 °F 55.4 °F 82% 29.95 in 10.0 mi SSE 5.8 mph - N/A   Overcast
6:15 AM 60.8 °F 55.4 °F 82% 29.95 in 5.0 mi SE 4.6 mph - N/A   Mostly Cloudy
6:35 AM 60.8 °F 55.4 °F 82% 29.95 in 10.0 mi SSE 4.6 mph - N/A   Overcast
6:55 AM 60.8 °F 55.4 °F 82% 29.95 in 10.0 mi SSE 6.9 mph - N/A   Overcast
7:15 AM 60.8 °F 55.4 °F 82% 29.96 in 10.0 mi SSE 8.1 mph - N/A   Overcast
7:35 AM 60.8 °F 53.6 °F 77% 29.96 in 10.0 mi SE 5.8 mph - N/A   Overcast
7:55 AM 60.8 °F 55.4 °F 82% 29.96 in 10.0 mi SSE 5.8 mph - N/A   Overcast
8:15 AM 60.8 °F 55.4 °F 82% 29.97 in 10.0 mi SSE 8.1 mph - N/A   Overcast
8:35 AM 60.8 °F 55.4 °F 82% 29.97 in 10.0 mi SSE 6.9 mph - N/A   Overcast
8:55 AM 60.8 °F 55.4 °F 82% 29.97 in 10.0 mi SSE 6.9 mph - N/A   Mostly Cloudy
9:15 AM 60.8 °F 55.4 °F 82% 29.97 in 10.0 mi SSE 8.1 mph - N/A   Overcast
9:35 AM 60.8 °F 55.4 °F 82% 29.98 in 10.0 mi SSE 8.1 mph - N/A   Overcast
9:55 AM 60.8 °F 55.4 °F 82% 29.98 in 9.0 mi SSE 11.5 mph 16.1 mph N/A   Overcast
10:15 AM 60.8 °F 55.4 °F 82% 29.98 in 10.0 mi SSE 10.4 mph - N/A   Mostly Cloudy
10:35 AM 60.8 °F 55.4 °F 82% 29.99 in 10.0 mi SSE 9.2 mph - N/A   Overcast
10:55 AM 60.8 °F 55.4 °F 82% 29.99 in 10.0 mi SSE 5.8 mph - N/A   Mostly Cloudy
11:15 AM 62.6 °F 55.4 °F 77% 30.00 in 10.0 mi SSE 9.2 mph - N/A   Mostly Cloudy
11:35 AM 62.6 °F 57.2 °F 82% 30.00 in 10.0 mi South 9.2 mph - N/A   Overcast
11:55 AM 62.6 °F 55.4 °F 77% 30.00 in 10.0 mi SSE 6.9 mph - N/A   Overcast
12:15 PM 62.6 °F 57.2 °F 82% 30.00 in 10.0 mi SSE 6.9 mph - N/A   Overcast
12:35 PM 64.4 °F 55.4 °F 73% 30.00 in 10.0 mi South 6.9 mph - N/A   Mostly Cloudy
12:55 PM 64.4 °F 55.4 °F 73% 30.00 in 10.0 mi SSE 6.9 mph - N/A   Mostly Cloudy
1:15 PM 64.4 °F 57.2 °F 77% 30.00 in 10.0 mi South 8.1 mph - N/A   Overcast
1:35 PM 64.4 °F 57.2 °F 77% 30.00 in 8.0 mi SSE 8.1 mph - N/A   Overcast
1:55 PM 66.2 °F 57.2 °F 73% 30.00 in 10.0 mi South 10.4 mph - N/A   Overcast
2:15 PM 64.4 °F 57.2 °F 77% 29.99 in 10.0 mi SE 9.2 mph - N/A   Overcast
2:35 PM 64.4 °F 57.2 °F 77% 30.00 in 7.0 mi South 8.1 mph - 0.04 in   Mostly Cloudy
2:55 PM 64.4 °F 59.0 °F 83% 29.99 in 10.0 mi South 5.8 mph - 0.04 in   Overcast
3:15 PM 64.4 °F 57.2 °F 77% 29.99 in 10.0 mi Calm Calm - N/A   Mostly Cloudy
3:35 PM 62.6 °F 57.2 °F 82% 30.00 in 5.0 mi Calm Calm - 0.07 in   Mostly Cloudy
3:55 PM 62.6 °F 57.2 °F 82% 29.99 in 5.0 mi Calm Calm - 0.08 in   Overcast
4:15 PM 64.4 °F 57.2 °F 77% 29.99 in 10.0 mi Calm Calm - N/A   Overcast
4:35 PM 64.4 °F 57.2 °F 77% 29.98 in 10.0 mi Calm Calm - N/A   Mostly Cloudy
4:55 PM 64.4 °F 57.2 °F 77% 29.98 in 10.0 mi Calm Calm - N/A   Mostly Cloudy
5:15 PM 66.2 °F 57.2 °F 73% 29.98 in 10.0 mi Calm Calm - N/A   Overcast
5:35 PM 66.2 °F 59.0 °F 78% 29.97 in 10.0 mi South 3.5 mph - N/A   Overcast
5:55 PM 64.4 °F 57.2 °F 77% 29.97 in 10.0 mi South 3.5 mph - N/A   Mostly Cloudy
6:15 PM 66.2 °F 57.2 °F 73% 29.97 in 10.0 mi South 3.5 mph - N/A   Mostly Cloudy
6:35 PM 66.2 °F 59.0 °F 78% 29.97 in 10.0 mi SSE 5.8 mph - N/A   Mostly Cloudy
6:55 PM 64.4 °F 57.2 °F 77% 29.97 in 10.0 mi Calm Calm - N/A   Overcast
7:15 PM 64.4 °F 57.2 °F 77% 29.97 in 10.0 mi Calm Calm - N/A   Mostly Cloudy
7:35 PM 62.6 °F 57.2 °F 82% 29.97 in 10.0 mi Calm Calm - N/A   Scattered Clouds
7:55 PM 62.6 °F 55.4 °F 77% 29.97 in 10.0 mi Calm Calm - N/A   Mostly Cloudy
8:15 PM 60.8 °F 57.2 °F 88% 29.97 in 10.0 mi Calm Calm - N/A   Mostly Cloudy
8:35 PM 60.8 °F 57.2 °F 88% 29.97 in 10.0 mi Calm Calm - N/A   Mostly Cloudy
8:55 PM 60.8 °F 55.4 °F 82% 29.97 in 10.0 mi Calm Calm - N/A   Partly Cloudy
9:15 PM 59.0 °F 55.4 °F 88% 29.96 in 10.0 mi Calm Calm - N/A   Partly Cloudy
9:35 PM 59.0 °F 55.4 °F 88% 29.96 in 10.0 mi Calm Calm - N/A   Mostly Cloudy
9:55 PM 57.2 °F 53.6 °F 88% 29.96 in 10.0 mi Calm Calm - N/A   Mostly Cloudy
10:15 PM 57.2 °F 53.6 °F 88% 29.96 in 10.0 mi Calm Calm - N/A   Mostly Cloudy
10:35 PM 57.2 °F 53.6 °F 88% 29.96 in 10.0 mi Calm Calm - N/A   Mostly Cloudy
10:55 PM 57.2 °F 53.6 °F 88% 29.96 in 10.0 mi Calm Calm - N/A   Mostly Cloudy
11:15 PM 57.2 °F 53.6 °F 88% 29.96 in 10.0 mi Calm Calm - N/A   Mostly Cloudy
11:35 PM 57.2 °F 55.4 °F 94% 29.96 in 10.0 mi Calm Calm - N/A   Overcast
11:55 PM 57.2 °F 55.4 °F 94% 29.96 in 10.0 mi NNW 3.5 mph - N/A   Overcast